Regional Weather Roundup
Issued by NWS

Home | Current Version | Previous Version | Graphics & Text | Print | Product List | Glossary On
Versions: 1 2 3 4 5 6 7 8 9 10 11 12 13 14 15 16 17 18 19 20 21 22 23 24 25 26 27 28 29 30 31 32 33 34 35 36 37 38 39 40 41 42 43 44 45 46 47 48 49 50
656
ASUS43 KLMK 240410
RWRKY
KENTUCKY REGIONAL WEATHER ROUNDUP
NATIONAL WEATHER SERVICE LOUISVILLE KY
1200 AM EDT SAT JUN 24 2017

NOTE "FAIR" INDICATES FEW OR NO CLOUDS BELOW 12,000 FEET
WITH NO SIGNIFICANT WEATHER AND/OR OBSTRUCTIONS TO VISIBILITY.

KYZ001>023-026-027-061>063-070>075-240500-
WESTERN AND SOUTH CENTRAL KENTUCKY

CITY           SKY/WX    TMP DP  RH WIND       PRES   REMARKS
PADUCAH        CLOUDY    73  63  70 NW6       29.91R
HENDERSON      CLOUDY    70  69  97 W5        29.91R
OWENSBORO      CLOUDY    73  69  87 N3        29.90R
HOPKINSVILLE   CLOUDY    73  71  94 NW3       29.90R
BOWLING GREEN  MOCLDY    76  74  93 NW7       29.89R
GLASGOW        CLOUDY   N/A N/A N/A W3        29.88S
$$

KYZ024-025-028>034-038-045-046-053-240500-
NORTH CENTRAL KENTUCKY

CITY           SKY/WX    TMP DP  RH WIND       PRES   REMARKS
LOUISVILLE/SDF CLOUDY    74  69  85 N9        29.88R
LOUISVILLE/LOU CLOUDY    73  71  93 NW8       29.89R
FORT KNOX      CLOUDY    72  70  94 NW13      29.88R
$$

KYZ035>037-039>044-047>052-055>060-089>105-240500-
NORTHEAST KENTUCKY

CITY           SKY/WX    TMP DP  RH WIND       PRES   REMARKS
LEXINGTON      CLOUDY    69  66  90 S8        29.89R
COVINGTON      MOCLDY    68  67  96 CALM      29.87R
FRANKFORT      LGT RAIN  70  67  90 CALM      29.87R
$$

KYZ054-064>069-076>088-106>120-240500-
SOUTHEAST KENTUCKY

CITY           SKY/WX    TMP DP  RH WIND       PRES   REMARKS
JACKSON        FOG       65  64  97 CALM      29.92R VSB 1
LONDON         LGT RAIN  68  66  93 SE5       29.93R
SOMERSET       CLOUDY    66  66 100 CALM      29.92S
MIDDLESBORO    CLOUDY    68  68 100 CALM      29.96R
MONTICELLO     CLOUDY    71  70  96 VRB6      29.93R
$$





USA.gov is the U.S. government's official web portal to all federal, state and local government web resources and services.